sat.trackr.live / text

‹ back to catalog

STARLINK-4492

NORAD 53410 · 2022-097Y

PAYLOAD ACTIVE UNKNOWN

§ Identity

Operator
Country
US
Launch date
2022-08-10
Launch site
AFETR
Launch vehicle
Mass (kg)
RCS (m²)

Purposes: comms

External: N2YO · Heavens-Above · Gunter

§ Orbital elements

Epoch: 2026-05-25T05:12:20.726784Z

Period
95.44 min
Inclination
53.2131°
Eccentricity
0.0000902
Mean motion
15.08843118 rev/d
Perigee alt
539.1 km
Apogee alt
540.4 km
Semi-major
6,917.9 km
B*
2.9450e-5
RAAN
130.5764°
Arg perigee
82.6147°
Mean anomaly
277.4947°
Rev number
21,020

§ Raw data

STARLINK-44921 53410U 22097Y   26145.21690656  .00000181  00000+0  29450-4 0  99992 53410  53.2131 130.5764 0000902  82.6147 277.4947 15.08843118210209

JSON: /api/v1/satellites/53410 · /tle

For live sub-satellite position, see the globe view (requires WebGL).

§ Visibility from observer

Set your observer location to see the next 7 days of passes ≥ 10°. The values pass through the URL so the page stays shareable.

No JS? Fill the form by hand. The geolocation button needs JavaScript.